Location: Altleiningen
(49.5078°N, 8.0741°E)
Time: 04:56:32
(UTC+00:00)

Cosmos 468 Rocket - Pass Details

Date: 14 June 2025
Orbit: 741 x 774 km, 74.0° (Epoch: 12 July)

Event Time Altitude Azimuth Distance (km) Brightness Sun altitude
Rises 23:15:36 0° 333° (NNW) 3,215 8.5 -17.1°
Reaches altitude 10° 23:18:00 10° 330° (NNW) 2,281 7.4 -17.1°
Maximum altitude 23:23:04 60° 252° (WSW) 853 4.1 -17.2°
Enters shadow 23:25:26 31° 184° (S) 1,300 4.6 -17.2°
